Other Public Products
Issued by NWS Charleston, SC

Current Version | Previous Version | Graphics & Text | Print | Product List | Glossary On
Versions: 1 2 3 4 5 6 7 8 9 10 11 12 13 14 15 16 17 18 19 20 21 22 23 24 25 26 27 28 29 30 31 32 33 34 35 36 37 38 39 40 41 42 43 44 45 46 47 48 49 50
731
FPUS82 KCHS 231012
OPUCHS

TEST...KCHS/KSAV Gateway Observations...TEST
National Weather Service Charleston SC
500 AM EST TUE JAN 23 2018

NOTE: "fair" indicates few or no clouds below 12,000 feet with no
significant weather and/or obstructions to visibility.

SCZ050-WAZ558-NCZ071-TXZ119-213-PAZ071-DCZ001-FLZ074-172-MI076-
NYZ176-178-MAZ016-IL014-TNZ027-NJZ106-GAZ044-MD014-231100-

...Gateway Observations for Charleston International...

CITY           SKY/WX    TMP DP  RH WIND       PRES   REMARKS
Chas Airport   CLOUDY    65  63  93 SW23G30   29.92R
Seattle        CLOUDY    41  35  79 SE6       30.21F
Charlotte      CLOUDY    62  61  96 SW10      29.79F
Dallas DFW     PTCLDY    41  19  41 NW10      30.15R
Dallas Love    CLEAR     38  23  55 NW3       30.18R
Philladelphia  CLOUDY    53  49  86 S10G20    29.81F
Wash National  LGT RAIN  54  52  93 S14       29.75F
Baltimore      CLOUDY    50  49  96 SE6       29.76F
Miami          CLOUDY    74  71  91 SE8       30.03S
Detroit        CLOUDY    40  37  89 SW12      29.52S WCI  33
Newark         FOG       40  39  97 NE7       29.86F VSB 1/2 WCI  35
Laguardia      FOG       37  36  96 E7        29.88F VSB<1/4 WCI  32
J F K          FOG       46  46 100 CALM      29.89F VSB 1/2
Boston Logan   DRZL/FOG  33  33 100 NE8       30.01F VSB 3/4 WCI  26
Ft. Lauderdale MOCLDY    73  73 100 SE10      30.02S
Chicago O`Hare LGT RAIN  35  32  88 W10       29.53R WCI  27
Chicago Midway LGT SNOW  36  33  89 W12       29.54R FOG     WCI  28
Houston Bush   FAIR      40  35  83 CALM      30.18S
Houston Hobby  FAIR      43  36  76 CALM      30.18R
Nashville      FAIR      46  26  45 VRB6G17   29.85R
Atlanta        MOCLDY    53  37  54 W13G21    29.90R

$$

GAZ044-118-TXZ119-213-NCZ071-DCZ001-MDZ014-506-PAZ021-071-NJZ106-
NYZ176-178-MAZ106-OHZ011-021-055-MIZ076-KYZ091-ILZ014-INZ047-
MNZ060-ONZ431-231100-

...Gateway Observations for Savannah International...

CITY           SKY/WX    TMP DP  RH WIND       PRES   REMARKS
Savannah Arpt  CLOUDY    65  63  93 SW7       29.94S
Atlanta        MOCLDY    53  37  54 W13G21    29.90R
Charlotte      CLOUDY    62  61  96 SW10      29.79F
Dallas DFW     PTCLDY    41  19  41 NW10      30.15R
Houston Bush   FAIR      40  35  83 CALM      30.18S
Wash National  LGT RAIN  54  52  93 S14       29.75F
Wash Dulles    LGT RAIN  53  53 100 SE3       29.73F
Baltimore      CLOUDY    50  49  96 SE6       29.76F
Philadelphia   CLOUDY    53  49  86 S10G20    29.81F
Newark         FOG       40  39  97 NE7       29.86F VSB 1/2 WCI  35
Laguardia      FOG       37  36  96 E7        29.88F VSB<1/4 WCI  32
J F K          FOG       46  46 100 CALM      29.89F VSB 1/2
Boston         DRZL/FOG  33  33 100 NE8       30.01F VSB 3/4 WCI  26
Pittsburg      LGT RAIN  47  46  97 S5        29.60F
Akron          CLOUDY    45  42  89 S5        29.58S
Cleveland      FAIR      45  39  79 S6        29.59S
Cincinnati     CLOUDY    44  32  62 SW18G31   29.65R
Columbus       CLOUDY    40  36  84 W5        29.63S WCI  37
Detroit        CLOUDY    40  37  89 SW12      29.52S WCI  33
Chicago O`Hare LGT RAIN  35  32  88 W10       29.53R WCI  27
Minneapolis    FAIR      21  15  78 N20       29.89R WCI   6
Indianapolis   MOCLDY    36  33  89 SW20G25   29.64R WCI  25
Toronto Canada CLOUDY    36  34  93 CALM      29.50F

$$




USA.gov is the U.S. government's official web portal to all federal, state and local government web resources and services.